Regional Weather Roundup
Issued by NWS

Home | Current Version | Previous Version | Graphics & Text | Print | Product List | Glossary On
Versions: 1 2 3 4 5 6 7 8 9 10 11 12 13 14 15 16 17 18 19 20 21 22 23 24 25 26 27 28 29 30 31 32 33 34 35 36 37 38 39 40 41 42 43 44 45 46 47 48 49 50
000
ASUS45 KSLC 182210
RWRUT

UTAH REGIONAL WEATHER ROUNDUP
NATIONAL WEATHER SERVICE SALT LAKE CITY UT
400 PM MDT SAT APR 18 2015

UTZ001>011-023>025-182300-

NORTHERN UTAH

CITY           SKY/WX    TMP DP  RH WIND       PRES   REMARKS
BRIGHAM CITY   MOSUNNY   67  30  24 SW9       29.97S
HILL AFB       SUNNY     64  35  33 SW9G18    29.99F
LOGAN          SUNNY     66  31  27 CALM      29.96F
OGDEN          SUNNY     66  36  32 SW12      29.98F
PROVO AIRPORT  MOSUNNY   64  36  34 NW14      29.98F
SALT LAKE CITY MOSUNNY   65  32  29 NW14G20   29.99F
VERNAL         SUNNY     66  23  19 N18G25    29.92F
WENDOVER       MOSUNNY   70  25  18 SE9       29.99F
HEBER CITY     MOSUNNY   64  25  22 NW17G25   29.97F
WEST JORDAN    SUNNY     63  34  34 NW15      30.01F

$$

UTZ012>022-026-027-182300-

SOUTHERN/CENTRAL UTAH

CITY           SKY/WX    TMP DP  RH WIND       PRES   REMARKS
BLANDING       MOSUNNY   60  31  33 N12G22    30.04F
BRYCE CANYON   PTSUNNY   59  21  23 NW21G28   30.07F
CEDAR CITY     SUNNY     67  16  14 VRB5      30.02F
DELTA          SUNNY     70  17  13 N16G26    29.98F
HANKSVILLE     PTSUNNY   70  27  19 NW13G24   29.91F
MILFORD        SUNNY     70  17  13 NE12G22   30.00F
MOAB/CYNLANDS  PTSUNNY   63  43  48 SE15      29.90F
PRICE          MOSUNNY   68  23  18 NW14G32   29.92F
ST GEORGE      PTCLDY    79  25  13 W12       29.91F
KANAB          SUNNY     73  19  13 W14G22    29.98F

$$

REGIONAL REPORTS     COLORADO/ARIZONA

CITY           SKY/WX    TMP DP  RH WIND       PRES   REMARKS
CRAIG, CO      LGT SNOW  33  32  96 W5        30.00R VSB 3/4 WCI  29
GRAND JUNCTION CLOUDY    44  38  79 S9        29.99F
RIFLE          HVY SNOW  34  32  92 CALM      30.03R VSB 1/4
MONTROSE       CLOUDY    39  36  89 W3        30.03S
CORTEZ         MOSUNNY   55  37  50 W15       29.98F
PAGE, AZ       SUNNY     74  21  13 CALM      29.90F
GRAND CANYON   SUNNY     65  15  14 NW13G18   30.06F
KINGMAN        SUNNY     79  13   8 VRB5      29.95F
FLAGSTAFF      SUNNY     63   8  11 NW12G18   30.08F

$$

REGIONAL REPORTS    NEVADA/IDAHO/WYOMING

CITY           SKY/WX    TMP DP  RH WIND       PRES   REMARKS
LAS VEGAS, NV  MOSUNNY   85  15   7 S8        29.85F
ELY            MOSUNNY   67  17  14 NE13G21   30.06F
ELKO           MOSUNNY   70  21  15 NW15G28   30.06F
POCATELLO, ID  MOSUNNY   67  24  19 W12       30.01F
BURLEY         SUNNY     66  31  27 W10       30.01F
EVANSTON, WY   MOSUNNY   59  19  21 N23G31    30.02S
ROCK SPRINGS   PTSUNNY   56  26  31 NE24G35   29.96R
KEMMERER       MOSUNNY   57  18  21 NW17G28   30.00F

$$


USA.gov is the U.S. government's official web portal to all federal, state and local government web resources and services.